Skip Navigation Links
NOAA logo - Click to go to the NOAA homepage
NOAA's National Weather Service
Alaska Aviation Weather Unit
  NWS logo - Click to go to the NWS homepage
Left Navbar Graphic     08 AKDT = 16 GMT

   
NOAA is celebrating 200 years of science, service, and stewardship. Visit the NOAA 200th celebration Web site to learn more.
USA.gov is the U.S. Government's official Web portal to all Federal, state and local government Web resources and services.
Facebook
NWS on Facebook

Important Change Regarding the AAWU Web Presence

 

Over the last several months, the AAWU has been working to navigate its webpages to a nationally supported server. Security, as well as other needs, have necessitated the change.  In the process, we have made an effort to enhance the functionality of our website, as well as some of our products. As of June 20, 2017, aawu.arh.noaa.gov will be discontinued. The new AAWU web address is weather.gov/aawu. It is now live and will run in-parallel with the old site until it is discontinued. Please send any feedback or questions regarding the new webpages to nws.ar.aawu.webauthors@noaa.gov.  Thank you for your patience during this time of transition.
AAWU Home :: Display TAF Add Bookmark
TAF PAFA 291124Z 2912/3018 VRB06KT P6SM SCT080 BKN120 BKN250=

METAR PAFA 291053Z 29006KT 10SM SCT080 BKN200 12/03 A2973= METAR PAFA 291153Z 29006KT 10SM SCT080 BKN120 BKN200 12/01 A2973= METAR PAFA 291253Z 27006KT 10SM SCT095 BKN130 BKN200 13/01 A2973= METAR PAFA 291353Z 24003KT 10SM SCT095 BKN130 BKN200 12/01 A2973= METAR PAFA 291453Z 14005KT 10SM SCT080 BKN110 BKN200 09/03 A2974= METAR PAFA 291553Z 26003KT 10SM SCT080 BKN110 BKN200 10/03 A2973=
 Alaska TAF Map

NOAA's National Weather Service
Alaska Aviation Weather Unit
6930 Sand Lake Road
Anchorage, AK 99502-1845
Disclaimer
Credits
Glossary
Privacy Policy
About Us
Career Opportunities
Contact AAWU Internet Services Site last modified: April, 17th 2012